Simultaneous Nadir Overpasses (SNOs) Predictions

Prediction of SNOs between FY3D and AQUA Satellite Orbit:

Table of predicted SNOs for the next 14.0 days since TLE Epoch: 10/31/2025
Index Date (FY3D) Time (FY3D) Lat,Lon (FY3D) SZA (FY3D ) Date (AQUA) Time (AQUA) Lat,Lon (AQUA) SZA (AQUA ) Distance(km) Time Diff (sec)
1 11/02/2025 12:16:59 79.45, -11.62 94.32 11/02/2025 12:17:37 79.45, -11.74 94.33 2.64 38
2 11/02/2025 13:07:38 -79.26, 157.29 85.87 11/02/2025 13:06:49 -79.26, 157.28 85.87 0.17 49
3 11/04/2025 21:47:36 79.42,-154.00 95.04 11/04/2025 21:47:46 79.43,-154.01 95.04 0.31 10
4 11/04/2025 22:36:16 -74.26, 37.29 89.21 11/04/2025 22:35:03 -73.94, 35.37 89.71 68.55 73
5 11/07/2025 06:27:35 -79.60,-105.53 84.07 11/07/2025 06:28:42 -79.60,-105.41 84.08 2.57 67
6 11/07/2025 07:18:12 79.37, 63.86 95.70 11/07/2025 07:17:53 79.36, 63.97 95.69 2.39 19
7 11/09/2025 15:58:08 -79.47, 113.14 83.53 11/09/2025 15:58:46 -79.47, 113.10 83.53 0.75 38
8 11/09/2025 16:48:45 79.23, -77.52 96.24 11/09/2025 16:47:57 79.23, -77.58 96.24 1.13 48
9 11/12/2025 01:28:45 -79.46, -29.36 82.88 11/12/2025 01:28:52 -79.45, -29.23 82.88 2.72 7
10 11/14/2025 10:08:39 79.51, 20.25 97.81 11/14/2025 10:09:42 79.52, 20.12 97.82 2.92 63



Historial Predications of SNOs between FY3D and AQUA
